Weather History for Paris, IL

Change the Weather History Date:

Wednesday, November 7, 2012

  Actual Average (KHUF) Record (KHUF)
Temperature  
Mean Temperature 42 °F 47 °F  
Max Temperature 45 °F 57 °F 75 °F (1965)
Min Temperature 38 °F 37 °F 18 °F (1971)
Degree Days  
Heating Degree Days 24 18  
Month to date heating degree days 119  
Since 1 July heating degree days 546  
Cooling Degree Days 0 0  
Month to date cooling degree days 0  
Year to date cooling degree days 993  
Moisture  
Dew Point 40 °F    
Average Humidity 91    
Maximum Humidity 100    
Minimum Humidity 78    
Precipitation  
Precipitation 0.00 in 0.12 in 0.76 in (1968)
Month to date precipitation 0.92  
Year to date precipitation 39.19  
Sea Level Pressure  
Sea Level Pressure 30.03 in    
Wind  
Wind Speed 4 mph (NNW)    
Max Wind Speed 9 mph    
Max Gust Speed -    
Visibility 6 miles    
Events      
T = Trace of Precipitation, MM = Missing Value Source: NWS Daily Summary

Daily Weather History Graph

Daily Weather History Graph

Search for Another Location

Airport:

Trip Planner

Search our weather history database for the weather conditions in past years. The results will help you decide how hot, cold, wet, or windy it might be!

Date:

Astronomy

Nov. 07, 2012 Rise Set
Actual Time 6:26 AM CST 4:41 PM CST
Civil Twilight 5:58 AM CST 5:10 PM CST
Nautical Twilight 5:26 AM CST 5:42 PM CST
Astronomical Twilight 4:54 AM CST 6:13 PM CST
Moon No Moon Rise 12:49 PM CST (11/7)
Length of Visible Light 11h 11m
Length of Day
10h 15m
Last Quarter, 43% of the Moon is Illuminated
Nov 7
Last Quarter
Nov 13
New
Nov 20
First Quarter
Nov 28
Full
Dec 6
Last Quarter

Hourly Weather History & Observations

Time (CST) Temp. Windchill Dew Point Humidity Pressure Visibility Wind Dir Wind Speed Gust Speed Precip Events Conditions
12:15 AM 40.6 °F 37.5 °F 39.7 °F 97% 29.90 in 2.5 mi South 4.6 mph - N/A   Light Drizzle
12:35 AM 40.6 °F 38.6 °F 39.7 °F 97% 29.89 in 3.0 mi South 3.5 mph - N/A   Overcast
12:55 AM 41.0 °F - 40.1 °F 97% 29.89 in 2.5 mi Calm Calm - N/A   Overcast
1:15 AM 41.0 °F - 40.1 °F 97% 29.89 in 1.8 mi Calm Calm - N/A   Drizzle
1:35 AM 41.0 °F - 40.1 °F 97% 29.89 in 1.8 mi Calm Calm - N/A   Light Drizzle
1:55 AM 41.0 °F - 40.1 °F 97% 29.89 in 2.0 mi Calm Calm - N/A   Light Drizzle
2:15 AM 41.2 °F - 40.3 °F 97% 29.89 in 1.5 mi Calm Calm - N/A   Drizzle
2:35 AM 41.0 °F 39.0 °F 41.0 °F 100% 29.89 in 1.8 mi SSW 3.5 mph - N/A   Light Drizzle
2:55 AM 41.4 °F - 40.6 °F 97% 29.89 in 2.0 mi Calm Calm - N/A   Overcast
3:15 AM 41.2 °F - 40.5 °F 97% 29.89 in 2.0 mi Calm Calm - N/A   Overcast
3:35 AM 41.2 °F - 40.5 °F 97% 29.89 in 2.0 mi Calm Calm - N/A   Overcast
3:55 AM 41.4 °F 38.4 °F 40.8 °F 98% 29.89 in 3.0 mi West 4.6 mph - N/A   Overcast
4:15 AM 40.8 °F 36.2 °F 40.1 °F 97% 29.90 in 5.0 mi WNW 6.9 mph - N/A   Overcast
4:35 AM 40.1 °F 34.1 °F 39.2 °F 97% 29.90 in 4.0 mi WNW 9.2 mph - N/A   Overcast
4:55 AM 39.7 °F 35.6 °F 39.2 °F 98% 29.91 in 2.5 mi WNW 5.8 mph - N/A   Overcast
5:15 AM 40.1 °F 38.0 °F 39.2 °F 97% 29.91 in 3.0 mi WNW 3.5 mph - N/A   Overcast
5:35 AM 40.1 °F 36.1 °F 39.2 °F 97% 29.92 in 3.0 mi WNW 5.8 mph - N/A   Overcast
5:55 AM 39.6 °F 36.3 °F 38.8 °F 97% 29.92 in 2.5 mi WNW 4.6 mph - N/A   Overcast
6:15 AM 40.1 °F 38.0 °F 39.2 °F 97% 29.93 in 2.5 mi WNW 3.5 mph - N/A   Overcast
6:35 AM 40.1 °F 36.1 °F 39.4 °F 97% 29.94 in 3.0 mi NW 5.8 mph - N/A   Overcast
6:55 AM 40.3 °F 37.1 °F 39.6 °F 97% 29.94 in 4.0 mi NW 4.6 mph - N/A   Overcast
7:15 AM 40.6 °F 37.5 °F 39.7 °F 97% 29.96 in 4.0 mi NNW 4.6 mph - N/A   Overcast
7:35 AM 40.8 °F 36.9 °F 39.7 °F 96% 29.97 in 4.0 mi NNW 5.8 mph - N/A   Overcast
7:55 AM 40.8 °F 37.8 °F 39.7 °F 96% 29.98 in 4.0 mi NNW 4.6 mph - N/A   Overcast
8:15 AM 41.2 °F 39.2 °F 40.3 °F 97% 29.99 in 2.5 mi NNW 3.5 mph - N/A   Overcast
8:35 AM 41.9 °F 40.0 °F 41.0 °F 97% 29.99 in 2.0 mi NNE 3.5 mph - N/A   Overcast
8:55 AM 41.9 °F 38.2 °F 41.0 °F 97% 30.01 in 3.0 mi NE 5.8 mph - N/A   Overcast
9:15 AM 42.1 °F 37.7 °F 41.0 °F 96% 30.01 in 4.0 mi NE 6.9 mph - N/A   Overcast
9:35 AM 42.3 °F 38.6 °F 40.6 °F 94% 30.02 in 3.0 mi NE 5.8 mph - N/A   Overcast
9:55 AM 43.0 °F 40.3 °F 41.5 °F 95% 30.03 in 3.0 mi East 4.6 mph - N/A   Overcast
10:15 AM 43.7 °F 41.1 °F 40.8 °F 90% 30.03 in 5.0 mi ENE 4.6 mph - N/A   Overcast
10:35 AM 44.1 °F 40.8 °F 41.0 °F 89% 30.04 in 5.0 mi ENE 5.8 mph - N/A   Overcast
10:55 AM 44.1 °F 41.5 °F 40.5 °F 87% 30.04 in 7.0 mi NE 4.6 mph - N/A   Overcast
11:15 AM 44.1 °F 41.5 °F 39.9 °F 85% 30.05 in 10.0 mi NNE 4.6 mph - N/A   Overcast
11:35 AM 44.2 °F 41.8 °F 40.1 °F 85% 30.04 in 7.0 mi NNE 4.6 mph - N/A   Overcast
11:55 AM 44.6 °F 42.2 °F 40.1 °F 84% 30.04 in 10.0 mi NNE 4.6 mph - N/A   Overcast
12:15 PM 44.6 °F 42.2 °F 39.9 °F 84% 30.05 in 7.0 mi North 4.6 mph - N/A   Overcast
12:35 PM 44.8 °F 43.3 °F 39.7 °F 82% 30.05 in 10.0 mi North 3.5 mph - N/A   Overcast
12:55 PM 44.6 °F 42.2 °F 39.2 °F 81% 30.05 in 10.0 mi North 4.6 mph - N/A   Overcast
1:15 PM 45.0 °F 41.8 °F 39.4 °F 81% 30.05 in 10.0 mi NNW 5.8 mph - N/A   Overcast
1:35 PM 44.8 °F 41.6 °F 38.3 °F 78% 30.05 in 10.0 mi NNW 5.8 mph - N/A   Overcast
1:55 PM 44.6 °F 42.2 °F 39.0 °F 81% 30.05 in 10.0 mi North 4.6 mph - N/A   Overcast
2:15 PM 44.2 °F 39.7 °F 39.2 °F 82% 30.06 in 7.0 mi NNW 8.1 mph - N/A   Overcast
2:35 PM 44.1 °F 40.8 °F 39.4 °F 84% 30.07 in 7.0 mi NNW 5.8 mph - N/A   Overcast
2:55 PM 44.1 °F 39.5 °F 39.6 °F 84% 30.07 in 7.0 mi NW 8.1 mph - N/A   Overcast
3:15 PM 44.2 °F 40.3 °F 39.4 °F 83% 30.09 in 7.0 mi NNW 6.9 mph - N/A   Overcast
3:35 PM 44.1 °F 40.8 °F 39.6 °F 84% 30.09 in 7.0 mi NNW 5.8 mph - N/A   Overcast
3:55 PM 43.7 °F 41.1 °F 39.2 °F 84% 30.10 in 7.0 mi NW 4.6 mph - N/A   Overcast
4:15 PM 43.5 °F 40.1 °F 39.2 °F 85% 30.10 in 10.0 mi NNW 5.8 mph - N/A   Overcast
4:35 PM 43.2 °F 40.5 °F 39.0 °F 85% 30.10 in 10.0 mi NW 4.6 mph - N/A   Overcast
4:55 PM 43.2 °F - 39.0 °F 85% 30.11 in 10.0 mi Calm Calm - N/A   Overcast
5:15 PM 43.0 °F 41.3 °F 39.2 °F 86% 30.11 in 10.0 mi NNW 3.5 mph - N/A   Overcast
5:35 PM 42.8 °F 41.1 °F 39.2 °F 87% 30.12 in 7.0 mi NNW 3.5 mph - N/A   Overcast
5:55 PM 42.8 °F - 39.2 °F 87% 30.13 in 10.0 mi Calm Calm - N/A   Overcast
6:15 PM 42.6 °F 40.9 °F 39.4 °F 88% 30.14 in 7.0 mi WNW 3.5 mph - N/A   Overcast
6:35 PM 42.6 °F 39.0 °F 39.6 °F 89% 30.14 in 7.0 mi WNW 5.8 mph - N/A   Overcast
6:55 PM 42.4 °F 38.8 °F 39.7 °F 90% 30.15 in 7.0 mi NW 5.8 mph - N/A   Overcast
7:15 PM 42.4 °F 38.8 °F 39.6 °F 90% 30.15 in 7.0 mi NW 5.8 mph - N/A   Overcast
7:35 PM 42.6 °F 38.4 °F 39.4 °F 88% 30.15 in 7.0 mi NW 6.9 mph - N/A   Overcast
7:55 PM 42.3 °F 37.9 °F 39.2 °F 89% 30.15 in 7.0 mi NW 6.9 mph - N/A   Overcast
8:15 PM 42.3 °F 38.6 °F 39.2 °F 89% 30.16 in 7.0 mi NW 5.8 mph - N/A   Overcast
8:35 PM 42.4 °F 40.7 °F 38.8 °F 87% 30.16 in 7.0 mi NNW 3.5 mph - N/A   Overcast
8:55 PM 42.3 °F 40.5 °F 38.7 °F 87% 30.17 in 7.0 mi NNW 3.5 mph - N/A   Overcast
9:15 PM 42.1 °F 39.2 °F 38.8 °F 88% 30.17 in 7.0 mi NW 4.6 mph - N/A   Overcast
9:35 PM 41.9 °F 40.0 °F 39.2 °F 90% 30.17 in 7.0 mi NW 3.5 mph - N/A   Overcast
9:55 PM 41.9 °F 39.0 °F 38.8 °F 89% 30.17 in 7.0 mi NW 4.6 mph - N/A   Overcast
10:15 PM 41.9 °F 39.0 °F 38.8 °F 89% 30.17 in 7.0 mi NW 4.6 mph - N/A   Overcast
10:35 PM 41.4 °F 38.4 °F 38.7 °F 90% 30.17 in 7.0 mi NNW 4.6 mph - N/A   Overcast
10:55 PM 40.6 °F 36.7 °F 38.3 °F 91% 30.17 in 5.0 mi NW 5.8 mph - N/A   Overcast
11:15 PM 39.4 °F 37.2 °F 37.2 °F 92% 30.17 in 5.0 mi NW 3.5 mph - N/A   Scattered Clouds
11:35 PM 38.3 °F 35.9 °F 36.5 °F 93% 30.17 in 4.0 mi WNW 3.5 mph - N/A   Clear
11:55 PM 38.5 °F 35.0 °F 36.9 °F 94% 30.17 in 5.0 mi NW 4.6 mph - N/A   Clear